Theta_e
334 334 334 334 333 332 333 334 333 332 333 332 333 333 333 333 333 334 334 334 334 334 334 334 334 333 333 333 334 334 334 333 333 334 333 333 333 333 333 333 333 334 334 333 332 333 332 332 332 332 332 333 333 333 333 333 332 331 330 330 330 331 330 330 328 324 320 320 320 319 318 318 318 317 316 314 313 313 313 316 321 322 323 324 323
334 334 334 334 332 332 333 334 332 332 333 333 333 333 332 332 332 333 333 333 334 334 334 334 334 334 334 334 334 334 334 334 333 334 334 334 334 333 333 333 333 334 334 334 333 333 333 333 333 332 333 333 333 333 333 333 333 332 332 330 330 331 331 330 330 328 324 322 320 319 319 318 318 318 317 315 313 312 311 314 319 321 322 324 323
333 334 334 333 333 333 333 333 332 331 333 332 331 332 331 331 331 332 331 331 331 331 331 331 331 332 333 333 332 332 333 333 333 333 334 334 334 333 333 333 333 334 334 334 334 334 333 333 333 333 333 333 333 333 333 333 333 332 332 331 331 331 331 331 331 330 329 326 322 320 319 318 318 318 317 317 315 314 312 311 315 320 322 323 323
332 333 333 333 333 333 333 333 332 331 331 331 331 331 332 332 332 332 332 332 331 332 331 330 330 330 330 330 330 331 332 332 332 333 334 333 332 332 332 332 332 333 334 334 334 334 334 333 333 333 333 333 333 333 333 332 332 331 332 332 332 332 332 332 331 330 330 329 327 322 319 318 318 318 318 317 317 316 314 312 312 316 321 323 323
332 332 333 333 333 334 334 334 334 332 332 333 333 332 333 333 333 333 333 332 332 332 331 331 331 330 330 330 330 330 331 331 332 332 332 332 331 331 331 330 331 332 333 333 332 332 332 333 333 333 333 333 333 333 332 332 331 331 332 332 332 332 332 332 331 331 330 330 329 326 321 318 318 318 317 317 317 317 316 314 311 312 319 323 323
331 331 332 334 334 334 334 334 334 333 332 333 333 332 331 332 332 332 332 331 330 330 330 330 329 330 330 330 331 330 331 331 331 331 331 331 331 331 330 329 330 330 331 332 331 331 331 332 332 332 332 332 332 332 332 331 331 331 331 332 332 332 332 332 331 330 331 330 330 329 325 320 319 319 317 318 317 317 317 315 312 311 317 322 322
330 329 330 333 334 334 334 334 333 332 332 332 332 331 330 330 331 331 331 330 329 328 328 328 327 328 330 330 330 329 329 329 330 330 330 330 330 331 330 328 328 329 329 330 330 331 332 332 332 331 330 330 330 330 331 331 331 331 331 331 331 331 332 331 331 331 330 331 330 330 328 323 319 319 318 318 317 318 317 315 313 311 316 321 322
329 330 331 333 334 334 334 333 333 333 333 332 331 330 329 330 331 331 331 330 329 329 329 328 328 328 329 330 329 327 327 328 328 329 329 329 330 331 330 329 329 329 329 330 331 332 333 333 332 332 331 331 331 331 331 331 330 330 330 331 331 331 331 331 331 331 330 331 330 330 329 325 321 319 320 319 318 318 318 315 313 312 314 319 321
330 330 331 333 333 334 334 333 333 333 332 332 332 331 330 330 331 332 331 330 329 329 328 328 327 328 328 328 328 327 328 328 327 328 328 329 331 332 332 331 331 330 331 331 332 333 333 333 333 332 331 331 331 332 332 331 331 330 330 331 331 331 331 331 331 331 331 331 331 330 330 328 323 320 320 321 320 319 318 316 314 312 313 316 318
331 330 330 331 332 333 334 333 333 332 332 332 331 331 331 331 332 332 331 330 329 328 328 328 328 328 328 327 327 327 327 326 326 328 329 330 331 333 332 331 331 331 331 332 333 334 334 333 333 332 331 331 331 331 331 331 331 331 331 331 331 331 332 331 331 331 331 330 331 330 330 330 326 321 320 322 322 321 319 317 315 314 313 315 316
330 329 330 330 330 331 332 332 332 332 332 331 331 331 331 331 332 332 332 330 329 328 328 328 328 328 328 327 326 327 327 326 328 329 329 330 331 333 333 332 331 330 331 332 332 333 333 333 332 332 331 331 331 330 331 331 331 331 331 331 331 331 331 331 331 331 331 331 331 330 330 330 328 324 319 320 322 323 321 318 316 315 314 315 314
329 329 329 330 330 331 331 331 331 331 331 331 332 332 332 332 332 333 332 331 330 329 328 328 327 327 327 326 327 327 326 326 328 328 329 330 332 334 333 331 330 330 331 331 331 332 333 332 331 331 330 330 330 330 330 330 330 331 331 331 330 330 330 330 331 331 331 331 331 330 330 330 329 327 322 319 320 323 323 320 317 317 316 316 315
330 330 330 331 331 331 331 331 331 332 332 332 333 332 332 333 332 332 331 330 330 329 328 327 326 324 323 324 326 326 324 325 327 328 330 331 332 333 331 329 329 329 329 330 330 330 331 330 329 329 329 329 329 329 329 328 329 330 331 331 331 331 331 330 330 331 331 331 330 331 331 330 329 329 326 322 320 322 324 321 318 318 318 317 316
333 332 333 332 332 332 332 332 332 332 333 332 332 332 332 331 331 331 331 330 329 327 325 324 324 322 321 320 321 321 322 324 328 330 331 330 330 330 329 328 328 328 328 329 329 329 329 328 328 327 327 327 328 328 328 328 328 329 329 329 330 331 331 331 330 330 331 331 331 331 331 331 330 329 329 326 322 321 323 323 320 319 319 318 317
333 333 333 332 332 331 332 332 332 332 331 331 331 331 330 330 330 330 329 328 327 325 322 321 321 320 320 319 319 319 319 322 326 330 330 328 327 327 327 327 326 326 327 327 328 328 327 327 326 326 326 325 326 326 326 327 327 327 327 327 328 329 330 330 331 330 330 329 330 330 331 331 330 329 329 329 325 322 322 324 322 321 321 320 319
331 331 330 330 330 330 330 330 330 329 330 329 328 327 327 327 327 326 323 320 320 318 317 317 316 316 317 318 319 319 319 318 320 323 324 322 322 321 322 322 322 321 322 324 325 326 326 326 325 324 323 323 324 324 325 325 326 326 326 326 327 327 328 329 329 329 329 329 329 330 330 331 330 330 329 330 328 323 321 323 323 322 321 322 321
330 329 329 329 329 329 328 328 328 328 328 327 324 323 322 322 321 318 315 314 313 312 313 313 313 315 316 317 318 318 319 318 316 316 316 316 316 315 315 315 314 314 314 315 317 319 321 322 321 320 319 320 322 323 324 324 325 325 325 325 325 325 326 327 327 327 328 329 329 329 330 331 330 330 329 329 329 326 322 322 323 323 322 322 323
328 328 328 328 327 327 327 327 327 327 325 323 320 319 317 315 314 313 312 311 311 310 310 310 313 316 317 318 318 318 318 317 316 315 313 312 311 310 309 307 306 305 305 306 307 308 310 312 313 313 313 314 316 319 322 323 324 323 324 323 323 324 324 325 326 327 327 328 328 328 330 330 330 330 330 329 330 328 324 322 322 323 323 323 323
327 327 326 327 327 326 325 325 324 323 321 319 317 315 313 311 311 310 310 309 309 308 308 307 311 315 317 318 319 318 318 317 316 314 311 308 307 306 303 302 302 302 302 301 301 301 301 302 303 304 305 306 308 312 316 319 320 321 322 322 323 323 323 323 324 325 326 326 326 327 328 329 329 330 330 330 330 329 326 323 322 323 324 323 323
324 324 324 324 325 323 321 320 320 319 316 314 312 310 309 309 309 308 307 307 306 306 305 304 306 309 311 313 314 315 315 315 313 310 307 305 303 302 302 301 300 301 300 299 299 299 298 298 299 299 300 300 301 303 305 308 311 314 316 318 320 321 321 320 322 323 324 324 325 326 327 328 328 329 330 330 330 329 328 325 323 322 323 324 324
321 321 322 322 322 319 316 315 315 313 312 310 309 307 307 306 305 305 304 304 303 302 302 301 302 303 305 306 307 308 308 308 307 304 301 301 300 301 301 301 301 300 299 298 298 297 298 297 298 297 297 298 298 298 299 299 301 304 306 307 310 314 315 315 317 319 321 322 323 324 326 327 328 328 329 331 330 329 329 327 324 322 322 323 324
320 321 320 319 318 315 312 312 311 309 309 308 306 304 303 303 302 302 301 301 301 301 300 300 300 302 304 305 306 306 306 304 303 301 300 300 300 299 298 299 300 299 298 298 297 297 297 297 297 297 297 297 297 297 297 297 298 298 299 300 301 303 305 306 309 312 315 318 319 321 324 326 327 327 328 329 330 330 329 329 326 323 323 323 323
320 319 317 315 313 310 309 309 308 308 307 305 303 302 302 301 301 300 300 300 300 300 299 300 301 303 305 306 306 306 305 303 301 300 299 300 299 297 296 296 297 298 298 297 297 297 297 296 296 297 297 296 297 297 297 297 297 297 297 297 298 298 299 300 302 305 309 312 314 317 321 323 326 327 328 329 329 330 330 329 328 325 323 323 323
318 315 312 310 309 307 306 306 305 305 303 302 301 300 300 300 300 300 300 299 299 299 299 299 301 303 305 305 305 305 303 300 298 298 298 298 297 296 296 296 296 297 297 297 297 296 296 296 296 297 296 296 297 297 297 297 297 297 297 297 297 297 297 298 299 300 304 307 310 313 317 321 324 326 327 328 329 330 330 330 328 327 325 324 323
314 310 307 305 305 304 304 303 302 302 301 300 300 299 299 299 299 299 299 299 298 298 298 299 300 302 303 304 303 301 298 297 296 296 296 296 296 296 296 296 296 296 296 297 297 296 296 297 296 297 297 297 297 297 297 297 297 297 297 297 297 297 297 297 297 298 300 303 307 311 315 319 322 324 326 327 328 329 330 330 329 328 327 325 323
308 305 304 302 302 301 301 300 300 300 299 299 299 299 299 299 299 299 298 298 297 297 298 299 299 300 302 301 299 296 295 295 296 295 296 295 295 296 295 296 296 296 296 296 296 296 297 297 296 297 297 297 297 297 297 297 297 297 297 297 297 297 297 297 297 297 297 299 304 310 314 317 319 322 324 326 327 328 329 329 329 328 328 326 323
303 301 301 300 300 299 299 299 299 299 299 299 298 298 298 298 298 299 298 297 297 296 297 298 299 300 299 297 296 295 295 295 295 295 295 295 295 295 295 295 296 296 296 296 296 296 296 297 297 297 297 297 297 297 298 298 298 298 298 298 298 297 298 297 297 297 297 297 300 306 312 315 317 320 322 325 326 327 327 328 328 328 328 327 324
299 300 299 298 298 298 298 298 298 299 298 298 298 298 298 298 298 297 297 297 297 296 297 297 299 300 298 296 295 295 295 295 295 295 295 295 295 296 295 295 295 296 296 296 296 296 296 297 297 297 297 297 297 298 298 298 298 298 298 298 298 298 298 298 298 298 297 297 298 302 308 313 316 318 320 323 324 326 327 327 328 328 328 329 326
298 299 298 298 298 298 298 298 298 298 298 298 298 297 298 297 297 297 298 298 296 296 297 297 298 298 297 296 295 295 295 295 295 295 295 295 295 295 295 295 295 295 296 296 296 296 297 296 297 297 297 297 297 297 297 298 298 298 298 298 298 298 298 298 298 298 298 298 297 299 304 310 315 317 319 320 322 324 326 327 327 326 327 328 328
297 298 297 297 298 297 298 298 298 298 297 298 297 297 297 297 297 298 298 297 296 295 296 297 297 297 296 296 295 295 294 295 295 295 295 295 295 295 295 295 296 296 295 295 296 296 296 296 296 297 297 297 297 297 296 297 297 297 297 298 298 298 298 298 298 298 298 298 298 298 299 305 312 315 317 318 320 323 324 325 326 326 326 326 327
297 297 297 297 297 297 297 297 297 297 297 297 297 297 297 297 297 297 297 297 296 296 296 296 297 296 296 296 295 295 294 295 295 295 295 295 295 295 295 295 296 296 295 294 295 296 295 295 296 296 296 296 296 296 296 296 296 296 296 297 297 297 298 298 298 298 298 298 298 298 298 299 305 312 316 317 319 321 323 324 325 326 326 325 326
297 297 297 297 297 297 297 297 297 297 297 297 297 297 297 296 296 296 297 297 297 298 297 296 296 296 295 295 295 294 295 295 295 295 295 295 294 294 295 295 295 295 294 294 294 295 295 294 295 295 295 295 295 295 295 296 296 295 295 296 296 297 297 297 297 298 298 298 298 299 299 298 300 305 312 316 317 318 321 323 324 325 326 325 324
297 297 297 297 297 297 297 297 296 296 297 296 296 297 296 297 297 296 297 298 299 299 298 296 296 296 295 295 294 294 295 294 294 294 294 294 294 294 294 295 295 295 294 294 294 294 294 294 294 294 294 294 295 295 295 295 295 295 295 295 295 296 296 297 297 297 297 298 298 299 299 299 299 300 304 310 315 317 318 321 323 324 325 326 325
297 297 297 297 297 296 296 296 296 296 296 296 296 296 296 297 297 296 297 298 300 299 298 296 296 296 295 294 294 294 294 294 294 294 294 294 294 294 294 294 294 294 294 294 294 294 294 294 294 294 294 294 294 295 295 295 295 295 295 295 295 295 296 296 296 297 297 297 297 298 298 299 299 299 299 302 309 315 317 319 322 324 325 325 326
297 296 296 296 296 296 296 296 296 296 296 296 296 296 296 297 297 297 297 298 299 298 297 297 296 295 295 294 294 294 294 294 294 294 294 293 293 293 293 293 294 294 294 294 294 294 294 294 294 294 294 294 294 294 295 295 295 295 295 295 295 295 295 295 296 296 297 297 297 298 298 298 299 299 299 299 301 309 315 318 320 322 324 325 326
297 296 296 296 296 296 296 296 295 296 296 295 295 295 296 297 297 299 299 298 298 298 298 297 297 295 294 294 294 294 294 294 294 294 294 293 293 293 293 293 293 293 293 294 294 294 294 294 294 294 294 294 294 294 295 295 295 295 295 295 295 295 295 295 296 296 297 297 297 297 298 298 299 299 300 299 299 301 309 315 319 321 323 324 325
296 296 296 296 296 296 296 295 295 295 295 295 295 295 296 297 298 300 300 298 298 299 298 298 298 296 295 295 295 295 295 295 294 294 294 293 293 293 293 293 293 293 293 293 293 294 294 294 294 294 294 294 294 294 295 295 295 295 295 295 295 295 295 295 296 296 296 297 297 297 297 298 298 299 299 300 299 299 302 310 317 320 321 323 324
296 296 296 296 295 295 296 295 295 295 295 295 294 295 296 297 298 299 298 298 299 299 299 298 298 297 295 295 296 295 295 295 295 295 294 293 293 293 293 293 293 293 293 293 293 293 294 294 294 294 294 294 294 294 294 294 295 295 295 295 295 295 295 295 295 296 296 296 296 297 297 298 298 299 299 299 300 299 299 304 313 318 320 322 324
296 296 296 295 295 296 295 295 295 295 295 295 294 296 296 297 298 297 297 298 299 299 299 299 298 297 296 296 296 296 295 295 295 295 294 293 293 293 293 293 293 294 293 293 293 294 294 294 294 294 294 294 294 294 294 294 295 295 295 295 295 295 295 294 295 295 295 295 296 296 297 297 297 298 299 299 299 300 299 300 308 316 319 320 322
295 295 295 295 295 295 295 295 295 294 294 294 294 295 296 297 298 298 297 298 299 298 299 299 298 297 297 296 296 296 295 295 295 295 293 293 293 293 293 294 293 294 294 293 294 294 294 294 294 294 294 294 294 294 294 294 295 295 295 295 295 295 295 294 294 295 295 295 295 296 296 297 297 298 298 299 299 300 300 299 304 311 317 319 321
295 295 295 295 295 295 295 295 295 294 294 294 294 295 296 296 298 298 298 298 298 298 298 298 298 297 297 296 296 296 295 296 296 294 293 293 293 293 294 294 294 294 294 294 294 293 293 293 294 294 294 294 294 294 294 294 295 295 295 295 295 295 295 295 294 294 294 294 295 295 296 296 296 297 298 298 299 300 300 299 301 307 313 317 319
294 294 294 294 294 294 294 294 294 294 294 294 294 294 295 296 297 299 299 298 298 297 297 297 297 297 297 297 296 296 296 296 295 294 293 293 293 293 293 294 293 294 294 294 293 293 293 293 293 293 293 294 294 294 294 294 295 295 295 295 294 294 294 294 294 294 294 294 294 294 295 295 295 296 297 298 299 300 300 300 300 303 309 315 318
294 294 294 294 294 294 294 294 294 294 293 294 294 294 295 296 297 298 299 299 298 297 296 297 297 297 297 297 296 296 296 295 294 293 293 293 293 293 293 293 293 294 294 293 293 293 293 293 293 293 293 293 293 293 294 294 295 294 294 294 294 294 294 294 294 294 294 294 294 294 294 295 294 295 296 297 298 299 300 300 300 301 305 311 317
294 294 293 293 293 293 293 293 293 293 293 293 293 294 294 295 296 297 298 298 298 297 296 296 297 297 297 296 296 296 295 294 293 293 293 293 293 293 293 293 293 294 293 293 293 293 293 293 293 293 293 293 293 294 294 294 294 294 294 294 294 294 294 294 294 294 294 294 294 294 294 294 294 294 295 297 298 299 300 300 300 300 302 308 314
293 293 293 293 293 293 293 293 293 293 293 293 293 293 293 293 294 295 296 297 298 297 296 296 297 297 297 297 296 295 294 294 294 294 294 293 293 294 293 293 293 293 293 293 293 293 293 293 292 292 293 293 293 294 294 294 294 294 294 294 294 294 294 294 294 294 293 293 293 293 294 294 294 294 295 296 298 298 300 300 300 300 301 305 312
293 293 293 293 293 293 292 293 293 293 293 292 292 292 292 292 292 293 294 295 296 297 296 296 296 296 296 296 295 294 294 294 294 294 294 294 293 293 293 293 293 293 293 293 293 293 293 292 292 293 293 294 294 294 295 295 294 294 294 294 294 294 294 294 293 293 293 293 293 293 294 294 294 294 295 296 297 298 299 300 300 300 301 303 309
293 293 293 293 293 293 292 292 293 293 292 292 292 292 291 291 291 292 292 293 295 296 296 296 296 296 295 294 294 294 294 294 294 294 294 293 293 293 293 293 293 293 292 292 292 292 291 292 292 293 294 294 294 295 295 295 295 294 294 294 294 294 294 294 293 293 293 293 293 294 294 294 294 294 295 296 297 298 299 300 300 300 301 302 307
294 293 292 293 293 292 292 292 292 292 292 292 292 291 291 291 291 291 291 292 293 295 296 295 296 295 294 293 293 294 294 294 294 294 293 294 293 293 292 293 293 293 292 292 291 290 291 292 293 294 294 295 295 295 295 295 295 295 295 295 294 294 294 293 293 293 293 293 293 293 293 294 294 294 295 296 297 297 298 300 300 300 301 302 305
295 293 292 292 292 292 292 292 292 292 292 292 292 291 291 291 291 291 291 291 292 293 294 295 295 294 293 293 294 294 294 294 294 294 293 294 293 293 292 293 293 293 292 291 290 290 291 293 294 294 295 295 295 295 295 295 295 295 295 294 294 294 293 293 293 292 292 292 292 293 293 293 294 294 295 296 297 297 299 300 301 301 302 304 306
294 293 292 292 292 292 292 292 292 292 292 292 292 291 291 291 291 291 291 291 291 292 293 294 294 294 293 294 294 294 294 294 294 294 293 293 293 292 293 293 293 292 292 290 290 290 292 293 294 294 295 295 295 295 295 295 295 295 295 294 294 294 293 293 292 292 292 292 292 293 293 294 294 295 295 296 296 297 299 301 303 305 307 308 308
293 292 292 292 293 293 293 293 293 293 293 292 292 292 292 292 292 291 291 291 291 292 292 293 293 293 293 294 294 294 294 294 294 294 293 292 292 292 293 293 292 292 291 290 289 291 293 293 294 295 295 295 295 295 295 295 295 295 294 294 294 293 293 292 292 292 292 292 292 292 293 294 294 294 295 295 296 298 300 301 303 307 310 311 312
Wind_Speed
1 1 2 2 1 1 1 2 2 1 1 2 3 3 3 3 3 3 4 6 6 6 7 8 9 10 12 12 12 13 14 13 11 11 11 13 15 17 19 20 19 19 19 18 18 18 18 18 18 17 17 17 18 19 19 19 19 19 19 19 19 18 18 17 16 15 13 12 10 9 8 8 8 8 8 9 10 9 10 14 15 12 10 11 11
2 0 0 1 1 0 2 2 1 1 1 2 2 2 3 4 4 5 6 7 7 7 9 10 10 11 11 12 13 13 13 13 12 11 11 13 14 15 16 17 18 18 17 16 16 17 18 18 18 17 17 17 18 18 19 19 20 20 20 20 19 18 18 17 16 15 14 13 11 10 9 9 9 9 9 9 10 10 10 13 15 14 12 12 12
6 3 3 3 2 2 3 3 2 1 2 2 2 2 3 4 4 5 6 6 6 7 9 10 10 11 12 12 13 13 12 13 13 13 13 14 15 16 16 17 17 16 16 16 16 17 18 17 17 17 17 17 17 18 19 19 20 19 19 19 19 19 18 18 17 15 15 15 13 12 11 10 10 9 9 10 10 10 11 12 15 15 14 13 13
10 7 4 3 3 2 2 2 2 2 1 2 3 3 4 4 4 5 5 6 7 8 9 9 10 10 11 12 12 12 12 13 14 15 16 16 17 16 16 16 16 16 15 16 17 17 17 16 16 17 17 17 17 18 18 19 19 19 18 19 19 19 19 18 18 17 16 16 15 13 13 11 10 11 11 11 11 11 12 12 14 16 15 14 13
8 8 6 3 2 2 2 3 2 3 2 3 4 4 5 5 6 6 6 7 8 8 10 10 10 10 10 11 12 12 12 13 14 15 16 16 16 15 15 15 15 15 16 16 16 16 15 16 16 16 16 16 17 17 18 19 19 19 18 19 19 19 19 19 19 18 17 17 17 15 14 13 12 11 12 11 12 12 12 13 14 15 16 15 15
6 8 7 4 4 4 5 5 4 5 5 5 6 6 6 6 7 7 8 9 9 10 11 11 11 11 11 11 12 12 13 14 14 14 14 14 14 14 13 14 14 15 15 15 14 14 14 15 16 16 16 16 17 17 18 20 20 19 19 19 20 19 20 20 20 19 18 18 18 17 16 15 13 12 12 12 12 12 13 13 14 15 16 15 15
6 6 6 5 6 6 6 6 6 7 7 7 7 7 7 7 8 8 9 10 11 12 13 12 12 11 11 11 12 12 12 13 13 12 11 11 11 11 12 13 13 13 13 14 13 13 13 14 15 16 15 16 16 17 18 19 20 21 20 19 20 20 20 20 20 20 19 19 19 18 17 16 15 13 13 12 12 13 13 14 14 15 16 15 16
7 6 6 6 7 7 7 7 7 8 8 8 9 9 8 9 10 10 10 11 12 13 13 13 12 11 11 10 10 11 11 11 10 9 9 8 7 9 10 11 12 13 14 14 14 14 14 15 16 16 16 16 16 17 17 18 19 20 21 20 20 21 21 21 21 20 19 19 19 19 17 16 16 15 13 12 12 13 13 15 14 15 16 16 16
8 7 7 7 8 8 8 8 8 8 9 9 10 10 9 9 10 11 12 12 13 13 13 13 12 11 10 10 10 9 9 9 9 9 7 5 3 5 7 8 9 10 11 12 13 13 15 16 17 17 18 19 19 18 17 17 18 19 20 20 20 21 22 22 22 21 20 20 20 19 16 16 16 15 15 13 12 13 14 15 15 14 16 16 16
8 8 8 9 9 9 9 9 10 10 10 11 11 11 11 10 10 11 13 14 14 13 12 11 11 11 10 10 9 8 9 10 9 9 7 5 4 4 6 8 9 10 9 9 10 10 12 14 15 15 16 17 18 16 16 17 18 18 19 19 20 21 21 21 21 21 22 23 21 19 17 16 16 15 15 15 14 13 14 16 16 15 15 16 16
8 8 8 10 11 11 11 11 11 11 12 12 12 13 12 12 11 11 13 15 15 14 13 12 12 11 11 10 9 8 9 10 10 10 9 8 8 8 8 10 11 10 9 9 9 10 11 12 14 15 15 15 14 12 13 15 17 18 18 19 19 20 20 21 22 20 22 24 22 20 19 18 16 14 15 16 15 15 15 16 16 16 16 16 15
8 8 9 11 12 13 13 13 13 12 13 14 14 14 13 13 13 13 14 15 16 16 16 16 15 14 13 13 10 9 11 11 11 11 11 10 10 10 10 10 10 10 10 10 10 12 12 13 13 15 16 15 14 12 11 12 14 17 18 18 19 20 20 21 22 20 20 23 24 23 22 20 18 15 15 17 16 16 16 16 17 17 17 16 16
7 8 10 12 13 13 13 14 15 14 14 15 16 16 15 14 15 15 15 16 18 19 19 19 19 18 16 13 11 11 13 12 11 11 10 10 10 10 10 9 9 9 9 10 10 11 11 11 11 12 14 14 14 14 13 13 13 16 18 20 22 23 23 22 23 23 22 22 22 23 23 23 22 18 16 17 17 18 18 17 17 18 17 17 17
8 9 11 13 13 13 13 14 15 15 16 17 17 18 18 17 17 16 17 18 19 20 21 20 20 20 19 16 13 12 14 13 11 10 9 9 9 11 10 9 10 10 10 10 10 9 9 9 9 10 11 12 13 13 14 15 15 16 17 19 21 22 23 22 23 25 25 23 20 22 25 26 26 23 19 18 19 20 21 20 19 19 18 18 18
9 11 12 14 14 15 15 16 16 17 18 19 20 20 20 20 19 17 17 18 18 19 20 20 20 20 18 16 14 12 12 13 12 11 10 11 12 13 12 11 12 13 14 13 12 11 10 10 9 11 12 12 13 13 14 15 15 17 17 17 18 18 18 18 18 21 23 24 23 23 27 28 28 27 24 21 21 21 22 22 21 21 20 19 19
11 12 13 14 15 17 18 18 19 19 20 20 20 20 19 19 18 16 14 13 14 15 16 17 18 17 13 11 12 13 11 12 13 12 12 14 15 15 15 15 16 17 17 17 16 16 14 13 14 15 14 14 15 15 15 14 15 16 16 16 16 15 15 15 16 15 16 21 23 24 29 31 30 29 28 25 23 23 25 25 24 23 23 21 20
12 13 14 15 16 18 19 20 20 20 20 19 17 16 14 13 13 12 10 9 9 9 10 11 13 13 11 9 8 8 10 15 17 15 13 14 16 16 17 17 18 18 18 18 18 18 17 17 17 17 16 16 17 18 17 16 16 17 16 14 13 13 14 15 17 16 14 16 18 20 27 32 31 31 31 29 27 26 25 27 27 25 25 24 21
14 15 15 15 15 16 17 18 18 18 17 15 13 11 9 8 8 8 8 8 7 7 7 8 8 9 9 8 5 5 11 16 18 18 19 18 16 15 17 18 18 17 16 16 16 16 16 17 17 17 16 16 18 19 20 20 19 18 17 15 13 12 12 13 15 17 16 15 16 18 22 27 31 32 32 30 30 29 26 26 29 28 26 26 23
14 14 14 14 13 13 14 14 14 13 12 11 9 7 5 5 5 5 6 7 6 6 5 5 4 4 4 5 4 6 11 14 14 18 21 21 18 16 16 16 17 17 16 16 16 15 15 15 15 16 15 16 18 20 21 22 22 20 19 18 17 16 14 13 13 15 16 15 16 19 20 22 25 29 34 34 32 31 29 28 30 31 29 28 26
13 13 13 12 11 10 11 11 10 8 7 5 4 3 3 3 3 4 5 5 6 5 4 4 2 2 1 1 3 6 8 9 9 11 15 20 22 20 17 16 16 16 17 18 18 18 17 17 16 16 15 16 18 19 20 21 22 23 22 21 21 21 19 17 15 14 16 16 16 17 19 20 20 22 29 35 34 33 32 31 30 32 32 30 28
11 12 12 10 9 8 8 8 6 4 3 2 2 2 2 2 2 3 4 5 5 5 5 4 3 3 2 1 1 2 4 5 6 7 8 13 18 21 21 20 18 17 18 20 20 19 19 19 18 18 17 18 18 18 19 19 20 22 22 22 21 22 23 22 21 19 18 19 18 18 18 19 20 21 22 28 34 34 33 33 32 32 33 32 31
11 11 10 8 6 5 5 5 4 3 2 2 1 1 1 2 2 3 3 4 4 4 4 5 5 4 4 3 3 4 6 7 8 9 8 9 12 18 20 21 22 22 21 21 21 21 20 19 20 20 20 20 20 20 20 20 20 21 21 21 20 21 22 23 23 23 22 22 21 20 19 18 19 21 21 23 29 34 34 34 33 34 34 34 34
11 8 6 4 4 5 4 4 4 3 2 2 1 2 2 2 2 3 3 3 3 4 4 4 4 4 5 6 8 9 10 11 12 11 11 11 12 16 18 19 20 22 23 24 23 21 21 20 21 22 22 22 22 22 23 22 22 22 21 21 20 20 21 22 22 23 24 24 23 22 22 20 19 19 21 21 24 31 37 38 36 36 36 36 36
7 4 3 4 5 5 4 4 3 3 3 2 2 2 2 2 2 2 2 3 3 4 4 4 3 3 5 6 8 9 11 12 12 11 12 13 14 16 18 19 20 21 22 23 23 22 21 21 22 23 23 24 24 25 25 25 24 23 23 21 21 20 20 21 21 22 23 23 23 24 23 22 21 20 21 22 21 25 33 40 39 36 37 38 37
4 5 6 6 5 5 4 4 4 4 3 2 2 2 2 2 1 1 2 3 4 4 4 3 3 3 5 6 8 10 11 11 11 12 13 14 15 17 18 20 22 23 22 22 23 23 21 21 23 24 23 24 25 26 27 27 26 25 24 23 21 21 20 21 21 21 22 22 23 23 23 23 22 21 20 21 21 21 25 36 41 38 38 40 39
6 8 7 6 5 5 5 5 4 4 3 2 2 2 1 1 0 1 2 4 4 3 3 3 3 4 5 7 8 9 10 10 11 12 14 15 17 19 21 22 23 24 23 23 24 25 23 23 24 26 26 25 26 27 27 28 28 26 25 24 23 22 21 21 22 21 21 22 22 20 21 23 23 22 21 20 21 22 21 28 39 43 41 40 40
8 8 8 7 6 6 5 5 4 3 3 2 2 2 1 1 0 1 2 4 3 2 2 3 4 5 6 7 8 9 10 11 12 13 14 16 18 19 22 24 25 27 27 26 25 25 27 27 26 26 28 28 27 26 26 26 27 27 26 25 25 24 22 22 22 22 21 21 21 19 20 22 23 21 21 21 21 22 21 22 31 41 43 41 41
9 8 8 8 7 6 5 5 4 3 3 3 3 2 2 1 0 1 2 4 3 2 2 3 5 8 8 8 8 10 11 11 11 12 13 15 17 18 21 23 25 27 29 30 29 28 29 31 30 29 30 31 30 28 26 25 25 26 27 26 26 25 24 23 22 22 22 20 19 20 21 22 22 22 21 22 21 21 22 21 23 33 43 46 43
9 9 9 8 7 6 5 5 4 3 4 4 3 3 2 1 0 1 2 3 2 2 2 4 6 8 9 9 9 10 11 10 10 12 13 14 16 18 20 21 22 23 24 26 29 31 30 32 33 33 33 33 33 32 30 27 26 27 27 27 27 27 27 25 23 23 23 21 19 21 24 23 22 22 22 23 22 21 22 21 21 26 37 48 47
10 9 9 8 7 6 5 4 4 4 3 4 4 3 3 2 1 1 2 3 2 1 2 3 5 8 9 9 10 10 10 11 11 13 14 15 17 18 20 21 21 22 21 21 24 29 30 31 33 35 36 36 36 36 35 32 30 29 28 28 28 28 29 28 25 24 24 23 22 21 24 24 23 23 24 25 24 23 23 23 23 24 29 41 50
10 9 8 7 6 5 5 4 4 3 3 3 3 3 3 3 2 1 2 2 1 2 3 4 5 8 9 10 9 9 11 12 13 14 16 17 19 19 20 22 22 22 23 21 22 26 29 30 33 36 37 37 37 37 37 36 34 33 32 30 30 30 30 30 28 26 25 25 25 23 23 24 25 26 27 28 27 26 24 24 25 27 25 31 45
10 9 7 6 5 5 5 4 4 3 3 2 2 3 3 3 3 2 2 1 2 3 5 6 7 9 10 10 10 11 12 14 15 17 18 19 21 21 21 22 22 23 25 24 23 27 29 29 32 35 37 38 39 38 38 38 37 37 37 35 35 34 33 32 31 29 27 26 26 25 24 23 25 28 29 30 30 27 25 25 25 28 28 26 34
10 8 7 6 6 6 6 5 4 4 3 3 2 2 2 2 2 2 1 2 3 5 7 8 10 10 11 10 11 13 15 16 18 19 21 21 22 23 22 22 22 23 25 26 25 29 31 31 32 34 36 38 39 39 40 41 42 41 42 41 40 39 37 35 34 32 30 28 28 27 26 25 24 26 29 31 32 29 26 26 25 27 30 28 28
9 8 7 7 7 7 7 7 6 5 4 3 2 1 2 2 1 2 1 2 4 6 8 10 11 12 11 11 13 16 18 19 22 23 23 24 24 24 24 23 22 23 24 25 26 29 32 33 33 35 36 37 38 39 40 41 42 43 44 43 43 42 41 40 38 35 32 31 30 28 27 27 25 25 26 30 33 32 29 28 27 26 28 31 31
10 9 9 8 8 8 7 7 7 6 4 3 2 1 1 1 0 2 2 2 4 6 9 12 13 14 13 13 16 19 21 22 23 24 25 26 26 25 25 23 22 23 23 24 25 28 31 34 34 36 37 38 38 38 39 39 40 42 43 44 44 43 43 43 41 38 35 33 32 30 29 28 27 25 25 26 31 33 32 31 30 27 26 30 34
10 10 10 9 9 8 7 7 6 6 5 4 3 1 0 0 1 3 3 3 4 6 10 13 15 16 15 16 19 21 22 24 24 25 26 27 27 26 25 24 23 24 24 24 25 27 31 34 35 36 37 39 39 39 39 39 40 41 42 44 45 45 45 44 44 42 39 36 34 32 31 30 27 25 24 24 27 31 34 35 33 29 27 29 34
10 11 10 9 9 8 7 7 6 6 5 4 3 2 2 2 2 3 3 3 4 6 9 12 16 17 15 17 21 22 24 25 25 26 28 28 27 25 25 25 25 26 25 25 25 27 30 34 36 37 38 39 40 41 40 41 42 43 42 44 45 46 47 47 47 46 44 41 39 36 34 31 28 26 25 24 25 29 33 36 35 32 29 27 31
11 11 10 9 8 7 7 7 6 5 5 4 3 3 2 2 3 3 3 4 4 5 8 10 14 16 15 17 21 23 24 26 27 28 29 28 26 24 25 26 27 28 27 26 26 27 30 33 36 38 39 40 41 42 41 41 42 43 44 45 46 46 47 49 50 50 48 47 44 40 36 33 30 27 25 24 24 26 30 34 36 35 31 28 30
11 11 9 8 8 8 7 7 7 6 5 4 4 3 3 3 2 3 5 5 3 5 7 8 12 15 15 17 20 22 23 26 28 29 29 28 25 24 25 27 28 30 30 28 27 29 31 34 37 39 40 41 42 42 43 42 42 42 43 46 49 48 47 48 50 52 51 50 48 44 40 36 32 29 27 26 24 24 27 32 37 37 33 30 30
12 10 9 8 8 8 8 7 7 6 5 5 4 4 4 3 3 4 6 6 3 5 5 7 10 13 15 16 19 21 22 25 28 29 29 27 25 24 26 28 29 30 31 30 29 31 33 36 38 40 41 42 42 43 44 44 44 44 44 46 49 49 50 50 50 50 51 51 50 48 43 40 37 34 32 31 27 24 26 30 35 39 36 31 30
12 10 9 8 8 8 8 8 7 6 6 5 5 4 4 4 4 5 6 5 3 4 5 6 9 13 14 15 18 19 21 24 27 28 27 24 23 25 27 28 29 31 31 31 31 33 35 37 39 41 42 43 43 44 45 44 44 46 47 47 49 50 51 52 51 48 47 47 48 49 47 45 44 40 37 34 29 24 25 29 33 38 38 32 30
12 10 9 9 8 8 8 8 7 7 6 6 6 5 5 5 5 5 4 5 4 5 5 5 7 11 12 13 16 17 20 24 27 26 24 21 22 23 25 27 28 30 31 32 32 33 35 38 39 41 42 43 43 43 45 45 45 47 48 48 50 52 51 52 53 50 44 41 45 50 52 50 46 44 41 37 31 26 24 27 31 35 38 35 30
12 11 10 10 9 9 8 8 8 8 7 7 6 6 5 6 5 4 4 3 2 2 3 3 5 7 9 12 14 17 21 24 24 22 22 22 22 22 23 25 26 28 30 32 33 34 35 37 39 40 42 43 43 43 44 46 47 48 49 49 49 51 49 49 51 52 46 41 44 50 54 51 46 45 45 40 33 27 24 25 29 33 36 37 32
13 12 11 10 10 9 9 8 8 8 8 8 7 6 5 4 3 3 3 3 2 2 2 3 3 4 8 11 14 17 20 21 20 21 22 22 23 24 24 25 25 26 28 29 30 32 33 36 38 39 40 42 43 43 44 47 49 50 50 50 48 48 48 47 47 49 47 44 43 46 52 52 46 44 45 40 33 27 23 22 26 31 34 36 35
13 12 11 10 10 10 9 8 8 9 8 8 8 6 5 3 1 1 2 3 3 3 3 3 3 2 6 11 14 15 17 18 19 21 22 23 25 25 25 26 26 28 29 28 26 28 31 34 38 38 38 39 41 42 44 46 49 51 51 51 50 49 48 47 46 47 46 43 41 41 47 50 44 41 43 38 31 26 22 20 22 28 32 34 36
14 13 12 11 10 10 9 8 8 8 8 8 8 7 6 4 3 2 3 4 5 5 5 5 4 3 6 11 12 13 15 17 19 21 23 25 26 26 27 27 28 30 31 29 28 29 32 34 36 36 35 35 38 41 44 45 47 49 50 52 52 50 49 47 46 46 44 41 39 38 44 47 41 39 42 36 29 26 22 20 21 24 29 33 35
14 13 12 11 10 10 9 8 8 8 8 8 8 7 6 5 4 4 3 3 5 6 6 6 5 6 9 10 11 13 15 18 20 22 23 25 27 28 28 28 29 32 32 30 30 32 34 33 32 32 33 34 37 40 43 46 47 48 48 48 48 48 48 48 46 44 41 39 36 34 40 44 40 39 41 35 30 28 24 21 21 22 26 31 34
15 13 12 11 10 10 10 9 8 7 8 8 7 7 6 5 5 5 4 2 3 5 6 6 7 8 9 9 11 14 16 18 21 22 23 25 28 29 29 28 30 33 33 31 31 32 32 30 29 30 32 34 37 40 43 46 47 48 48 47 46 45 46 48 46 43 39 37 33 30 36 43 41 39 39 34 30 30 26 21 21 21 24 28 32
16 14 13 12 10 10 10 10 9 8 8 8 8 8 7 6 5 5 4 3 2 3 5 6 7 6 7 9 12 15 16 17 21 23 24 25 27 28 29 30 32 34 35 34 34 33 31 28 28 30 33 36 39 41 44 46 47 48 48 48 47 45 44 46 45 42 38 36 34 30 32 38 37 33 33 31 28 27 24 19 17 17 19 24 29
16 16 14 13 12 11 11 11 10 10 10 9 9 9 8 7 6 5 4 4 3 2 3 3 3 3 7 10 12 14 15 16 20 24 26 25 25 27 29 31 33 35 36 37 37 35 32 29 30 32 35 38 40 43 45 47 48 47 47 48 47 44 44 44 43 41 39 36 30 25 26 31 31 29 30 31 30 27 21 15 13 12 14 19 25
17 17 16 14 13 12 12 11 11 11 11 11 10 10 10 9 8 7 6 5 4 2 2 2 2 4 7 9 11 13 15 16 19 25 26 25 25 27 28 31 33 35 36 37 37 36 33 33 34 36 38 40 42 45 48 49 49 48 46 46 45 43 43 43 40 39 39 34 27 22 26 32 33 31 30 29 29 26 17 12 11 11 12 14 20
Wind_Direction
12 323 327 350 353 324 324 306 320 354 351 341 331 329 325 312 310 295 291 290 288 290 290 290 284 283 289 294 299 302 301 297 298 305 303 299 297 296 296 298 303 306 309 314 318 318 317 318 318 318 317 316 314 313 314 313 316 318 317 316 316 318 320 324 329 323 308 301 292 280 273 268 262 255 249 238 232 225 211 202 197 201 210 216 219
138 238 245 263 259 223 261 261 285 308 300 316 313 311 290 275 280 279 280 282 282 283 280 279 275 273 276 282 288 291 290 287 289 295 297 299 301 300 297 297 300 303 310 317 319 318 317 318 319 320 319 317 314 311 310 308 309 311 311 310 310 312 312 314 322 327 320 311 294 281 277 267 261 257 251 243 239 234 221 206 199 202 210 217 220
150 152 179 210 233 215 230 241 233 214 233 270 272 270 259 254 262 271 279 283 285 283 282 283 280 275 273 278 284 286 284 281 284 289 294 298 300 300 296 294 295 300 308 313 316 317 317 319 319 320 320 318 316 313 309 305 305 306 306 306 306 307 306 307 311 319 322 322 307 283 276 271 260 256 253 246 242 239 231 216 206 205 210 218 224
152 149 172 206 217 215 234 245 258 256 242 268 274 270 266 267 268 273 283 288 289 286 287 291 289 285 279 278 280 282 284 282 286 291 296 300 302 302 297 294 294 298 305 310 313 316 318 320 321 322 321 319 317 315 310 305 304 303 301 302 303 303 301 301 304 310 313 320 319 296 275 269 263 257 254 251 243 241 238 227 217 209 208 217 225
153 145 162 196 205 204 228 226 247 272 268 265 268 266 265 273 277 278 283 284 286 286 288 292 290 290 289 289 287 287 288 287 291 295 299 302 304 306 304 301 300 302 306 309 312 315 318 322 323 323 321 319 318 317 314 310 308 305 299 297 300 301 298 297 299 303 305 310 317 310 285 269 264 259 257 255 245 242 240 234 228 214 207 216 224
156 149 159 181 207 210 218 222 236 256 257 258 262 265 265 272 279 280 282 283 285 285 284 284 285 287 290 293 293 293 292 292 294 298 302 305 307 309 311 311 310 309 311 313 315 317 321 323 324 323 321 320 318 317 317 313 309 307 299 294 297 297 293 295 295 297 301 301 306 311 298 275 263 258 258 259 250 244 240 236 233 219 208 216 225
178 167 166 188 221 228 231 241 254 259 260 263 266 269 271 277 282 284 287 288 286 282 280 283 285 286 288 290 291 292 296 298 298 298 301 306 312 317 319 321 321 322 323 322 324 325 327 329 330 329 328 328 325 325 325 321 316 309 302 295 294 292 289 292 292 291 294 295 298 305 301 283 265 254 254 258 256 248 240 236 233 221 212 216 224
193 176 178 205 229 240 247 251 258 264 266 269 272 274 278 283 287 289 290 289 284 280 281 285 287 286 285 286 288 295 303 304 302 299 300 308 325 335 338 341 341 339 336 332 329 328 328 330 332 333 333 333 331 330 331 332 328 320 314 305 295 292 289 290 289 287 289 290 292 296 297 286 270 253 248 252 255 252 243 236 232 222 216 216 223
189 179 195 219 234 243 247 246 252 263 270 273 275 277 280 281 285 288 288 286 283 281 281 282 283 284 283 286 292 300 303 300 297 295 291 293 321 337 337 338 334 331 329 326 323 324 326 326 329 332 332 331 327 324 324 328 331 329 325 317 310 304 295 289 285 281 282 285 286 286 288 286 275 258 246 245 248 250 246 237 229 224 220 219 223
189 194 211 228 240 246 249 252 256 263 269 273 276 277 278 276 277 280 281 282 282 283 284 282 281 281 284 288 295 301 296 290 286 281 277 268 268 284 290 295 301 304 306 307 307 311 316 315 318 320 322 323 321 320 321 322 325 325 325 321 319 317 307 297 289 280 278 280 280 279 281 283 276 261 248 242 240 243 246 240 229 224 224 224 223
202 212 226 238 247 251 255 258 260 263 268 272 273 275 275 274 272 273 276 280 283 286 289 288 286 286 287 290 293 293 287 283 277 272 270 264 262 264 272 286 295 297 294 294 295 296 298 299 304 310 310 310 308 310 313 316 319 318 319 319 317 317 314 309 301 287 276 272 271 273 276 279 275 263 250 242 239 238 243 243 234 227 227 228 224
217 227 238 246 252 257 261 264 265 268 272 274 274 274 274 272 271 270 273 279 283 288 290 291 291 289 287 289 290 285 278 275 271 271 270 263 261 264 271 284 292 293 290 289 291 293 298 301 308 316 314 310 306 302 300 305 311 309 307 308 308 308 310 309 306 299 284 271 267 269 271 273 274 266 252 244 239 238 241 242 238 232 229 229 226
233 243 246 251 254 259 265 268 270 272 272 273 272 273 273 271 270 271 274 277 282 286 288 290 291 289 286 281 273 270 272 270 262 260 262 259 260 264 270 279 285 288 291 293 295 296 302 312 321 325 321 320 317 310 305 302 306 307 302 297 295 296 296 297 299 301 298 283 268 264 264 268 271 266 257 246 235 233 238 239 236 233 231 229 226
242 249 253 256 258 263 266 268 270 272 272 271 272 273 274 273 272 275 278 280 283 286 289 290 291 292 294 289 275 264 263 260 253 248 250 255 260 266 269 279 288 289 290 294 298 299 305 317 329 330 325 326 326 319 313 306 304 306 305 299 295 293 290 286 284 285 291 293 282 270 264 263 265 263 261 252 235 230 234 236 233 231 232 231 228
239 244 251 257 261 266 267 268 268 270 271 271 273 275 275 276 276 278 280 281 284 287 291 292 291 294 298 299 294 286 270 252 237 235 255 269 271 276 279 286 295 294 293 293 294 296 301 310 318 320 320 322 322 319 315 311 311 311 312 311 308 305 299 292 285 282 284 286 283 277 272 267 260 257 261 257 241 230 230 232 231 229 231 231 232
241 247 253 259 265 268 269 271 271 272 274 274 276 277 277 278 280 282 282 284 286 289 292 294 295 297 301 302 300 302 294 272 259 254 265 277 281 288 291 293 296 295 296 297 297 296 298 303 306 310 315 315 311 308 307 308 311 314 316 317 318 320 318 307 300 298 294 286 278 271 271 269 261 254 256 256 246 233 228 229 228 228 229 229 231
251 256 261 265 267 269 270 272 274 276 276 276 278 279 281 283 284 287 291 295 300 301 302 303 303 305 311 314 308 309 305 298 296 287 283 292 297 300 303 304 305 305 305 304 301 300 299 300 301 303 309 310 302 298 299 300 300 303 309 315 319 322 321 312 304 301 300 297 287 274 268 267 264 259 253 251 248 239 229 227 226 226 227 227 227
259 264 268 269 270 271 269 270 271 272 273 276 281 283 286 289 290 295 301 309 320 325 326 324 317 314 321 329 331 319 305 304 307 302 299 303 306 308 311 314 318 320 321 318 313 310 307 304 302 303 306 305 298 293 292 292 292 293 296 304 312 315 313 309 305 299 294 292 288 280 271 266 266 263 256 251 248 241 230 226 225 224 226 225 223
261 265 268 272 276 275 270 266 264 265 270 277 281 282 287 294 298 302 305 313 324 338 355 358 339 330 333 322 302 291 296 304 313 313 312 310 310 315 318 322 330 333 335 335 332 329 323 317 312 311 310 305 299 293 290 289 288 288 288 289 293 298 302 300 298 296 295 293 285 278 273 270 269 263 255 249 247 243 234 225 224 223 224 223 220
259 262 269 276 279 274 265 258 253 256 265 269 272 285 302 308 309 309 311 317 325 342 13 32 43 65 85 249 257 268 282 296 307 315 315 308 308 315 320 326 335 340 342 343 345 343 338 336 332 326 320 312 307 304 300 296 292 290 289 288 286 287 291 293 292 291 292 293 290 283 277 274 272 267 257 249 247 246 238 227 223 223 223 222 220
270 273 279 284 278 265 251 242 239 241 246 256 285 314 334 332 323 318 318 322 332 350 6 16 39 59 76 152 202 265 287 299 304 313 316 310 313 320 323 324 328 340 346 344 348 350 346 344 340 335 329 322 320 318 313 309 304 299 296 294 290 286 286 287 286 285 284 284 286 287 285 278 270 267 266 258 249 246 242 234 225 223 224 223 221
281 284 285 283 263 240 222 216 218 225 236 263 306 323 331 328 321 318 323 330 345 2 8 14 26 35 32 24 20 8 356 354 354 353 348 336 327 327 328 327 325 334 344 345 349 351 348 347 342 337 335 332 330 327 322 320 317 311 307 302 296 289 285 284 282 279 278 278 279 282 284 284 275 262 262 264 254 245 244 240 228 223 222 222 222
288 285 275 254 211 188 180 191 207 218 232 250 280 303 303 309 317 323 334 351 10 20 25 33 34 32 28 19 13 10 7 7 6 0 355 349 339 333 334 333 328 331 338 342 347 349 348 347 343 339 338 338 336 332 328 326 323 320 315 309 303 296 290 285 280 275 273 273 274 276 277 278 277 264 254 258 258 249 246 242 232 225 222 221 221
288 260 202 172 167 166 171 192 211 220 231 245 257 274 286 297 319 337 5 30 41 40 40 49 46 27 18 13 7 2 3 8 3 356 356 352 345 341 340 339 336 334 337 340 343 347 349 346 343 342 341 339 337 335 331 328 326 323 318 314 309 304 298 292 285 276 271 270 269 267 268 270 269 265 256 253 257 255 247 241 234 229 226 223 220
235 182 161 155 161 171 186 206 221 229 234 244 246 251 268 281 318 4 51 59 47 41 44 45 37 15 3 357 355 357 4 9 4 359 359 354 349 348 348 344 339 338 340 342 342 343 345 347 346 344 343 341 338 335 333 330 328 325 321 318 314 309 304 299 294 286 276 269 265 262 261 263 263 262 260 255 256 256 247 240 237 235 232 225 220
178 165 158 159 172 185 200 214 224 229 224 224 226 221 237 249 353 28 68 69 52 39 38 29 15 4 355 353 359 9 17 15 7 4 3 2 360 356 351 345 341 341 342 345 346 344 342 346 348 346 344 343 341 337 335 332 329 326 324 320 316 313 309 304 300 296 286 272 267 264 259 258 259 259 258 254 253 251 245 241 237 235 235 228 220
168 163 163 169 183 191 198 206 211 214 199 183 191 187 197 216 36 33 60 68 61 43 26 9 8 12 12 16 21 26 26 19 13 14 12 8 5 1 356 352 348 345 345 346 348 348 346 345 346 348 346 343 343 341 337 333 329 326 325 321 318 316 313 309 305 302 296 283 273 268 262 256 254 255 255 252 250 246 243 244 240 236 237 235 226
168 167 169 175 187 190 192 194 195 195 180 166 170 169 170 177 41 44 63 68 64 46 22 0 7 19 25 31 34 32 29 25 19 17 13 9 6 3 1 1 356 350 348 348 349 348 348 347 345 346 348 345 344 344 341 337 332 327 325 323 321 319 316 314 310 306 302 295 281 269 263 256 251 251 253 253 249 243 239 238 239 238 237 237 232
172 172 176 181 186 187 189 189 183 183 177 168 166 162 160 152 124 74 71 67 55 34 19 359 3 16 24 31 33 33 31 27 19 14 11 9 8 5 3 4 2 357 352 348 348 348 347 348 346 344 346 347 345 345 344 341 338 333 329 326 323 321 319 317 313 308 305 301 290 273 264 259 252 249 251 254 249 243 241 237 239 242 238 236 233
177 177 182 186 186 187 186 181 176 176 176 176 174 170 170 160 146 86 65 59 38 33 22 0 7 18 24 29 33 36 33 22 15 13 11 9 8 7 5 4 2 1 357 346 343 347 346 346 348 345 345 346 346 344 343 342 340 336 332 328 326 323 321 319 316 311 307 303 296 285 274 265 258 252 251 254 250 244 242 241 242 247 244 239 233
181 183 185 186 185 183 178 174 173 172 176 182 182 180 175 159 137 93 62 48 26 44 27 6 19 25 27 32 34 35 30 20 16 15 13 11 9 7 6 6 2 0 1 354 341 345 348 345 347 349 346 345 345 343 340 339 338 336 333 330 328 327 323 320 318 314 310 307 302 297 288 275 264 257 252 252 251 247 243 240 242 246 247 245 236
184 186 185 182 179 174 169 169 168 170 177 181 184 187 183 165 137 109 69 27 10 26 22 12 18 23 28 37 39 34 26 18 17 16 13 11 10 9 7 7 4 360 2 2 346 343 350 349 347 349 349 346 345 344 340 338 338 337 336 334 332 330 326 322 321 319 315 312 308 304 297 285 272 263 257 253 251 250 247 242 243 243 242 244 239
186 188 186 178 173 167 163 163 163 173 186 189 194 205 210 196 142 118 78 18 13 16 17 16 18 23 35 46 43 33 25 18 16 15 13 13 10 10 8 5 4 3 2 3 353 345 348 351 350 350 350 348 346 346 344 341 340 339 338 337 335 332 329 326 323 321 319 316 312 308 302 295 285 273 265 259 255 253 251 247 244 242 239 237 237
186 188 187 179 173 168 165 164 166 174 185 191 204 230 244 240 160 121 90 26 12 12 19 25 26 30 43 49 38 29 23 18 16 12 10 11 9 8 7 2 0 2 2 1 356 347 344 348 351 350 350 349 346 346 346 342 340 338 336 334 334 332 331 329 326 323 322 319 315 312 307 300 296 287 274 264 258 254 252 250 246 242 240 236 232
187 184 183 179 175 171 168 168 170 173 177 180 179 212 259 259 124 113 97 33 9 15 30 35 33 34 43 42 30 24 19 15 13 10 8 8 8 7 5 1 357 358 1 1 356 348 342 343 347 348 348 347 344 343 343 340 338 337 334 332 332 331 330 329 328 325 323 322 318 314 310 304 299 294 282 269 261 255 251 249 246 243 241 237 232
186 182 180 178 175 172 168 168 171 172 175 174 168 165 211 187 76 87 75 26 10 25 36 36 30 32 39 34 25 21 16 11 9 7 6 6 6 7 7 5 1 357 358 359 356 351 344 341 344 346 345 344 342 341 340 337 336 335 334 332 330 329 328 327 326 325 324 323 320 316 313 308 301 295 286 274 263 256 251 247 245 245 243 237 231
181 181 180 177 174 171 169 167 169 173 173 169 164 154 147 134 98 88 60 23 19 28 33 28 22 25 31 25 20 17 12 7 6 5 5 5 5 8 9 8 5 1 358 356 354 352 346 342 342 344 345 342 339 339 339 336 333 333 333 332 329 326 325 325 324 324 324 323 321 318 314 309 303 296 289 280 267 258 252 247 243 244 245 239 231
182 183 182 177 173 172 172 168 165 168 167 161 159 155 149 139 121 96 66 53 37 24 26 20 13 17 22 18 16 14 8 4 3 3 4 5 5 7 8 8 6 2 358 354 352 350 348 345 342 342 343 341 338 337 338 335 332 331 331 330 327 324 323 323 322 322 322 321 320 319 315 310 304 297 292 285 275 263 254 247 243 243 244 241 233
185 187 182 178 176 172 170 165 161 163 163 159 158 155 154 148 137 97 81 79 42 12 16 10 5 10 16 16 14 10 5 1 1 3 4 4 4 6 8 7 4 0 357 354 352 350 347 345 342 341 339 338 336 334 335 334 331 329 329 327 326 325 323 321 319 318 319 318 318 318 316 312 306 300 296 292 284 271 257 246 242 242 243 241 234
185 187 181 179 176 171 166 161 159 158 153 155 156 153 151 145 131 99 89 87 46 11 8 359 360 6 10 12 10 6 2 360 360 2 3 2 4 7 8 5 1 358 357 354 352 350 348 344 342 340 337 335 335 333 333 334 331 329 328 326 324 324 323 320 317 316 317 317 317 317 316 313 308 303 300 296 290 278 262 248 240 239 240 239 235
184 184 178 175 171 168 164 157 154 148 142 148 148 141 141 137 127 109 96 89 51 8 350 349 0 4 4 4 3 2 359 357 357 0 3 6 9 7 4 1 358 355 354 354 353 350 347 344 341 339 336 333 333 333 332 332 330 327 327 325 321 321 322 319 315 315 316 315 315 314 313 312 310 305 301 298 293 283 267 253 242 238 237 237 234
182 181 176 170 165 163 158 150 144 138 138 141 136 129 129 131 131 124 113 99 64 11 340 342 354 357 357 356 357 356 352 352 356 0 4 9 10 5 0 358 356 353 352 352 352 350 346 343 340 339 335 332 332 333 330 329 329 326 325 324 321 320 321 317 314 315 315 314 312 310 309 309 308 305 303 301 296 288 272 255 243 237 236 235 233
179 176 172 166 160 155 147 141 137 133 133 129 121 118 119 126 137 143 144 135 105 14 343 349 346 343 348 349 347 346 347 353 1 6 8 9 7 2 359 358 355 353 353 351 350 349 345 340 338 337 334 331 332 332 329 329 329 326 324 323 320 319 318 314 312 312 311 312 310 307 306 305 304 303 303 302 299 292 277 258 244 237 235 234 232
175 171 169 162 152 143 138 135 130 123 118 111 106 105 107 118 143 162 172 185 214 268 328 358 343 336 344 343 339 341 351 3 9 8 6 4 2 359 356 355 353 352 352 351 348 345 342 338 336 335 333 331 331 331 331 330 328 326 324 322 320 317 314 310 308 306 307 310 308 302 301 302 302 301 301 300 299 293 279 259 244 236 233 232 231
172 168 165 156 145 135 130 126 119 111 105 99 96 93 89 92 104 239 235 239 263 274 295 329 344 345 335 333 337 349 3 11 10 5 1 357 357 355 353 352 351 349 348 347 344 341 338 337 334 332 333 332 330 331 332 332 329 327 325 322 320 317 313 310 307 304 305 308 306 300 298 298 300 301 300 299 299 293 280 260 243 234 231 230 230
173 166 160 153 142 133 126 119 112 107 103 97 92 87 80 75 60 353 293 268 272 278 286 307 323 321 321 333 349 6 14 11 7 3 358 354 352 349 347 347 346 346 347 345 341 338 336 336 334 331 333 335 334 333 335 335 331 327 324 322 321 319 314 311 310 306 305 306 305 302 297 296 299 299 298 299 299 294 282 262 244 233 228 226 227
176 165 157 152 142 132 122 112 107 104 99 94 90 85 78 71 59 34 2 292 267 274 286 298 307 318 332 355 17 22 17 12 8 4 357 352 349 345 343 343 343 346 348 345 341 338 337 338 336 333 335 340 341 340 341 340 334 329 326 324 324 321 316 314 312 308 305 304 304 299 293 293 296 296 296 300 300 295 286 267 248 234 227 224 223
178 168 157 150 140 129 118 109 104 99 95 93 89 84 76 64 52 39 22 353 269 264 281 298 314 328 348 22 34 24 15 10 7 4 357 351 348 347 345 345 345 346 347 344 342 341 340 339 337 337 340 345 346 346 346 344 338 334 332 328 327 325 318 314 314 310 306 304 302 298 291 291 294 294 295 300 301 296 288 271 252 238 228 222 221
176 169 158 146 136 126 117 111 105 97 93 90 84 76 69 57 43 31 17 9 330 270 277 297 318 341 17 37 30 17 10 5 4 3 357 350 348 349 349 348 347 346 345 344 344 344 343 340 338 340 344 348 350 350 349 347 344 341 335 330 330 328 319 316 316 313 307 304 302 298 290 290 295 296 296 301 303 298 288 269 249 235 226 221 219
167 163 158 147 135 127 119 111 102 92 84 79 73 67 62 53 42 29 15 10 6 313 275 290 322 27 49 41 29 16 6 1 1 0 356 351 350 352 352 349 347 345 343 343 345 345 344 342 343 345 349 352 354 353 351 349 348 346 340 334 332 329 322 320 320 315 309 306 305 303 293 290 295 296 295 299 302 296 283 263 241 218 211 213 214
161 156 154 146 135 126 118 106 93 81 71 65 59 53 50 43 32 24 20 20 33 60 109 123 104 82 60 42 32 19 7 0 358 357 355 355 355 354 352 348 346 344 342 343 346 346 343 344 347 350 353 357 356 354 353 352 351 349 345 340 337 332 327 326 324 318 312 307 304 300 292 288 290 290 289 292 296 294 280 257 244 216 198 205 211